Zurück zum Katalog

BREEZE-M R/B

AktivHEO
NORAD 27633·ROCKET BODY·🇷🇺 Russia

Gestartet Dec 29, 2002 von Baikonur Cosmodrome

Loading…

Nächste Überflüge (nächste 24 Stunden)

TLE

AktuellSource: Space-Track

Epoche: Sep 14, 2026, 12:19 UTC

1 27633U 02062B   26257.51373831 -.00000143  00000-0  00000-0 0  9993
2 27633  17.7551 353.2179 4907192  96.1804 339.6133  1.83739456159154

Verfolge BREEZE-M R/B in Echtzeit mit AllMySat

Download on the App Store